Wind_Speed
13 14 12 12 10 9 9 10 11 12 13 14 15 16 17 16 15 14 13 14 16 17 16 16 16 16 16 16 15 14 14 14 13 13 13 15 17 17 16 16 16 16 16 15 13 11 10 8 7 6 5 3 2 1 3 5 6 6 4 5 8 8 7 5 2 1 12 19 18 18 17 18 18 17 18 19 19 18 18 18 18 17 18 18 17
14 14 12 12 10 9 9 10 11 13 14 14 15 16 16 16 15 14 14 14 16 17 16 15 15 15 15 15 15 14 13 13 13 14 14 14 16 16 16 16 16 17 16 15 13 12 10 8 7 6 5 4 3 3 5 7 7 7 6 8 10 10 9 7 5 5 12 17 17 18 17 18 18 18 19 19 19 18 18 18 17 16 17 17 17
15 14 13 13 11 9 9 10 11 13 15 15 16 16 16 16 15 15 14 14 16 17 16 15 14 14 14 15 14 13 13 13 13 13 14 14 15 16 17 17 16 16 15 15 14 13 11 9 9 8 8 8 8 8 9 11 11 10 10 12 13 13 12 10 7 9 14 15 16 19 19 19 18 19 19 19 18 18 18 17 16 16 17 16 16
14 14 14 13 11 10 9 10 11 12 15 16 17 17 17 16 16 15 14 15 16 17 16 15 13 12 13 13 13 12 12 12 12 12 13 14 14 15 15 15 15 15 14 13 14 14 12 11 11 10 10 11 12 12 13 14 14 14 14 16 17 16 14 12 11 13 17 18 17 17 19 20 19 19 19 19 18 18 17 16 15 15 16 15 16
13 14 15 14 13 11 10 9 10 12 14 16 17 17 17 17 16 15 15 15 16 17 16 14 13 12 11 12 12 11 11 11 11 11 12 13 14 13 13 13 13 13 12 12 12 13 12 12 11 10 10 11 13 14 16 17 17 17 17 19 21 18 16 14 13 15 19 20 18 15 16 20 20 19 19 18 17 17 17 16 15 15 15 14 15
13 14 16 16 14 12 11 9 9 11 13 15 16 17 17 16 16 15 14 15 16 17 16 14 13 12 11 10 11 10 10 10 9 10 10 11 12 11 11 11 12 12 10 10 10 11 12 12 11 10 10 11 13 15 17 19 20 21 21 21 23 21 18 16 13 15 17 18 18 15 12 17 20 19 18 18 17 17 17 16 15 14 14 13 14
12 15 17 16 15 14 12 10 9 11 12 14 15 16 16 16 16 15 14 14 16 17 16 14 13 11 11 10 9 9 9 9 9 9 10 10 10 10 10 10 11 11 10 9 9 10 11 11 11 10 10 9 11 14 18 21 23 23 23 24 26 24 21 18 15 14 14 14 15 13 10 14 18 19 18 18 17 17 16 15 15 14 14 13 13
13 15 16 17 15 14 13 11 9 10 12 13 14 14 15 15 15 15 14 15 16 17 16 15 13 11 10 10 8 8 9 8 8 8 9 9 9 10 10 9 10 10 9 8 8 8 10 10 11 10 9 8 10 13 18 22 25 25 25 26 27 26 23 20 17 14 11 11 11 10 9 11 15 18 17 17 17 16 16 15 14 14 13 13 12
13 14 16 18 17 15 13 11 9 10 12 13 13 13 13 13 13 14 15 15 17 17 16 15 14 11 10 10 9 7 8 8 7 7 8 9 10 10 10 10 9 9 8 7 6 6 8 9 10 10 9 8 10 12 17 21 25 26 27 26 27 26 24 20 17 14 10 8 7 7 9 9 12 16 17 17 16 15 15 15 14 14 13 12 12
13 15 17 18 17 15 13 11 10 10 11 12 12 12 11 11 12 14 15 17 18 18 16 15 13 12 10 10 9 6 7 8 7 6 6 8 9 9 9 9 9 9 7 6 5 5 7 8 9 10 8 8 9 12 15 19 23 25 25 25 27 26 23 21 17 13 9 5 3 5 8 8 10 14 16 16 16 15 15 14 14 14 13 12 12
12 15 18 19 17 15 13 12 10 10 11 12 12 11 10 11 12 14 16 18 18 18 16 15 13 11 10 8 8 7 6 7 7 6 5 7 8 7 8 8 8 7 6 5 5 5 6 7 8 8 7 8 9 11 14 17 22 24 25 26 26 24 22 21 16 11 6 1 1 5 7 7 8 13 15 15 15 15 14 13 13 13 13 12 12
12 15 19 19 17 15 14 12 10 10 11 12 12 11 11 10 11 13 16 17 18 17 16 14 12 10 9 8 7 7 6 6 6 6 6 6 6 6 7 7 7 6 5 5 4 4 5 6 7 6 6 8 10 11 14 16 21 24 25 25 24 23 21 20 16 11 5 1 0 3 6 6 6 11 15 14 14 14 14 12 12 12 12 12 12
14 16 18 18 17 15 14 12 10 10 10 11 11 10 10 10 10 13 15 16 15 15 15 13 11 9 8 7 6 6 5 5 5 5 6 6 6 5 6 6 5 5 5 4 4 4 4 6 6 5 6 8 10 11 14 16 19 23 23 24 23 22 20 18 15 10 6 4 4 3 4 4 4 10 13 14 14 14 13 12 11 11 12 12 12
15 16 17 17 17 15 14 12 10 10 10 10 10 9 9 10 10 11 14 13 13 13 13 11 10 9 8 7 6 5 5 4 4 5 6 5 5 5 5 5 5 5 4 4 3 4 5 6 6 5 6 8 9 11 14 17 19 21 22 23 21 20 19 17 14 11 6 5 7 6 4 3 3 7 12 14 14 13 13 12 11 11 11 11 11
13 14 15 16 15 14 13 12 10 9 9 9 9 9 8 9 9 10 12 12 12 12 13 11 8 8 8 7 6 4 4 4 4 5 5 4 3 4 5 4 4 5 4 4 4 4 5 6 6 6 7 8 9 11 13 16 18 20 22 22 19 18 19 17 14 11 7 4 6 5 4 3 4 6 11 13 13 13 13 12 12 11 11 11 11
13 13 14 15 15 14 13 12 11 9 9 8 7 8 7 8 9 11 11 10 11 12 12 11 8 8 8 7 6 4 3 3 4 5 4 3 3 3 4 3 3 4 4 4 4 5 5 6 6 7 8 8 10 11 12 15 17 20 23 21 19 18 18 17 13 9 6 4 4 4 3 4 4 7 10 12 12 12 12 12 12 11 11 11 10
13 12 12 14 15 14 13 12 11 10 8 7 7 6 6 6 8 11 10 8 9 10 11 10 8 9 8 7 5 3 3 3 5 6 4 3 3 3 3 2 3 4 4 3 4 4 4 5 5 6 9 9 10 10 11 14 16 20 22 20 19 19 18 15 12 9 7 6 4 4 4 4 4 7 10 11 11 12 12 12 12 11 11 11 10
14 12 11 13 15 14 13 12 11 10 8 6 6 6 6 6 7 10 9 8 8 9 9 9 9 8 7 6 4 3 3 4 6 7 4 3 3 3 3 3 3 3 3 3 3 4 4 4 4 4 8 10 10 11 11 12 15 20 21 20 19 18 17 12 10 8 7 7 5 4 4 5 5 7 9 10 11 11 11 11 11 11 11 10 10
14 12 11 10 13 14 13 12 11 10 8 6 6 6 7 8 9 11 10 9 9 9 9 8 8 7 6 5 3 3 3 5 6 7 5 4 4 4 3 3 3 3 3 3 2 3 4 4 3 3 7 9 10 10 11 12 15 19 20 20 20 18 15 10 9 9 7 7 5 5 5 5 6 7 9 10 10 10 9 10 10 10 10 9 9
13 11 11 9 8 10 12 12 11 10 9 6 5 6 8 9 10 11 11 10 9 9 8 7 7 6 5 4 3 3 4 6 6 6 6 5 5 5 4 3 3 3 3 3 3 4 5 4 4 4 6 9 9 10 11 12 14 18 20 20 19 17 15 11 10 8 7 7 5 5 6 5 6 7 8 10 10 10 9 9 10 9 9 8 8
13 11 9 8 8 6 8 10 11 11 10 7 6 6 8 10 10 10 10 10 10 8 8 7 6 6 5 4 3 4 5 7 5 5 6 6 6 6 5 5 4 3 2 2 2 3 5 5 5 6 7 8 8 9 9 11 13 17 20 20 18 17 14 11 9 6 5 5 4 4 5 6 6 7 8 10 9 9 9 8 9 8 8 7 6
14 13 10 8 7 5 5 6 8 8 9 8 7 7 9 10 10 9 9 10 10 9 8 7 7 6 5 5 4 5 5 6 5 6 6 6 7 7 5 5 5 4 2 0 0 2 5 6 7 7 7 7 7 7 7 8 10 13 18 19 19 19 13 9 8 5 3 4 5 4 4 5 5 6 8 10 9 9 9 8 8 7 7 7 5
17 16 13 9 7 5 5 5 4 5 5 6 7 7 9 10 11 10 9 8 9 8 8 7 6 5 5 6 6 7 7 7 7 8 8 8 9 8 6 6 6 4 3 2 2 1 3 6 8 8 8 9 9 7 6 6 7 9 13 18 19 18 12 7 6 5 3 3 5 5 4 5 6 6 7 10 10 9 9 8 8 7 6 6 4
19 18 16 13 10 7 4 4 3 3 3 3 5 8 9 12 12 11 10 9 9 8 7 7 7 7 7 8 9 10 9 9 9 9 9 10 11 10 8 7 7 6 5 4 4 4 3 4 7 9 10 12 12 12 11 9 6 6 10 15 18 17 12 7 5 4 3 3 5 5 6 7 7 6 7 9 10 9 9 9 8 7 6 6 4
17 17 16 15 14 10 5 3 3 3 2 2 2 5 8 12 14 13 12 11 12 10 10 11 10 10 10 10 10 11 10 10 10 9 10 11 12 12 10 9 9 8 7 5 4 6 7 8 10 11 11 13 12 11 12 11 8 5 12 13 14 16 12 7 6 6 4 4 7 8 8 8 8 7 7 7 8 8 8 8 8 7 6 5 5
13 13 12 12 12 10 8 4 3 3 3 2 2 1 5 10 15 15 13 13 13 12 12 12 11 12 12 11 10 11 11 11 10 10 11 12 12 12 11 10 10 9 8 6 4 6 10 12 13 12 11 10 8 7 10 10 9 5 13 14 11 13 11 7 8 8 5 5 7 8 8 8 8 7 7 7 7 7 7 7 7 6 6 5 4
12 10 11 11 9 9 10 9 5 3 4 2 2 1 2 7 13 15 15 14 13 13 13 12 11 13 13 11 11 10 10 10 10 11 12 14 14 13 13 12 11 10 9 7 5 5 10 13 13 12 11 9 6 4 7 9 7 3 12 12 10 10 8 7 10 8 6 6 8 7 7 8 7 7 8 8 8 8 8 7 7 6 6 5 5
11 11 13 14 12 10 11 13 10 4 3 3 1 1 2 4 10 13 15 15 14 14 13 13 12 14 13 12 12 11 10 9 10 11 11 14 15 13 14 13 11 11 10 8 6 6 9 10 12 12 11 10 8 5 5 6 3 1 8 9 8 8 6 9 10 8 9 8 9 8 7 7 7 6 7 9 9 9 8 8 8 8 7 6 6
11 12 16 16 14 13 12 13 13 7 4 5 3 3 4 4 7 12 14 16 16 16 15 14 14 15 14 14 13 12 11 9 9 9 10 12 13 12 14 14 13 14 13 11 9 8 8 8 11 11 10 9 9 7 3 2 2 4 4 5 5 6 6 10 9 8 10 10 10 10 9 8 7 6 7 9 10 10 10 9 9 9 8 8 7
11 12 15 16 14 15 14 12 13 11 7 5 4 4 5 5 5 8 11 15 17 18 17 16 16 16 15 15 14 12 11 8 7 8 8 9 9 10 13 16 16 17 16 14 12 10 8 9 10 10 10 8 8 9 4 4 5 5 5 4 5 6 7 10 9 8 8 9 10 9 9 9 9 8 7 9 10 11 12 12 11 10 10 9 9
11 12 12 13 13 13 12 11 15 15 10 7 6 5 4 4 5 6 7 10 13 15 16 16 16 16 16 15 13 11 10 8 8 8 7 7 8 8 10 16 19 18 16 16 15 12 10 10 10 10 8 5 5 9 7 6 6 5 6 4 6 9 8 9 10 9 8 9 9 8 8 9 10 10 9 9 11 12 13 14 13 12 11 11 11
12 13 12 11 10 9 8 11 17 17 15 12 10 7 4 2 4 5 6 6 6 8 11 14 16 16 14 12 10 9 9 9 9 9 8 8 8 8 9 15 19 19 17 17 17 14 12 11 11 10 8 7 6 10 10 7 7 7 6 5 6 9 9 9 10 12 10 9 9 9 8 10 11 11 10 10 11 13 14 14 15 14 12 12 12
12 11 11 10 9 7 6 11 17 18 17 15 12 9 6 4 5 5 5 4 3 3 4 8 14 15 14 12 10 10 10 10 10 10 11 10 9 8 8 12 17 19 18 17 19 17 13 10 10 10 10 11 8 10 12 9 9 9 10 10 7 7 9 9 10 13 12 10 10 11 9 9 10 10 10 10 10 12 13 14 15 15 15 13 12
10 9 8 8 8 8 7 12 17 16 16 13 12 10 8 8 7 4 4 3 2 2 2 2 6 9 11 13 13 13 13 12 11 10 11 11 11 11 9 10 13 18 19 17 18 17 15 11 11 10 11 12 8 9 12 12 10 9 11 14 11 8 11 11 9 11 14 12 11 11 11 10 9 10 10 10 10 11 12 13 15 16 16 16 14
9 7 7 7 7 7 7 10 14 14 13 9 9 11 10 8 5 3 4 6 4 2 2 2 3 3 3 7 9 13 16 16 14 12 11 10 11 12 12 12 11 15 18 16 15 15 15 14 13 12 11 12 10 10 11 11 10 8 9 13 14 9 12 15 11 9 13 15 13 11 12 12 9 10 10 10 10 11 11 11 13 15 15 16 16
10 7 6 7 6 6 6 7 9 9 9 7 9 11 9 5 4 6 8 9 6 4 5 4 3 2 0 2 4 9 15 17 17 16 14 12 11 11 13 13 12 14 16 16 15 14 16 16 15 15 15 15 14 13 12 11 12 9 7 11 14 10 11 15 13 11 12 16 15 13 14 14 12 10 11 11 12 12 12 12 13 14 15 15 16
11 8 5 6 6 7 7 7 8 8 9 9 9 9 7 6 8 9 9 8 6 7 10 8 5 4 2 2 2 5 9 13 16 17 17 15 12 10 12 13 13 15 16 16 15 15 17 18 16 16 18 17 17 17 14 14 16 11 6 8 13 13 14 14 13 12 11 14 17 16 16 16 15 14 13 14 16 16 15 14 14 15 15 15 16
12 9 5 5 7 8 9 9 9 9 10 11 11 11 10 10 9 9 8 7 7 9 10 8 7 6 5 4 4 5 7 9 12 13 14 15 14 12 12 14 15 16 17 16 15 15 17 18 17 17 17 18 19 19 14 14 17 15 10 10 12 12 15 17 16 13 11 14 16 17 18 18 17 18 18 19 19 19 19 18 18 17 17 17 16
14 11 8 7 8 9 10 10 10 10 11 13 14 13 12 10 10 8 6 6 6 8 8 7 6 5 5 5 5 6 7 8 9 10 11 13 13 13 14 16 16 17 18 17 16 17 17 17 17 17 17 19 20 20 16 14 16 17 14 13 14 14 14 18 19 17 14 14 16 17 18 19 19 19 19 19 19 19 19 20 21 21 21 19 17
16 14 11 10 10 10 11 11 11 11 13 14 16 15 11 8 8 7 4 4 6 6 6 4 2 3 3 4 6 8 8 8 8 9 9 10 10 11 13 16 17 18 18 18 18 19 19 18 19 18 18 19 20 19 18 16 16 18 18 14 14 16 15 16 18 20 18 15 16 18 19 21 21 20 19 19 19 19 20 20 20 21 22 21 19
19 17 14 13 12 11 11 11 11 12 13 13 14 15 10 6 8 7 4 3 4 7 8 6 5 2 1 3 7 8 7 8 8 8 7 8 10 9 10 13 17 19 19 18 19 20 20 21 21 20 20 20 19 18 18 18 16 17 19 17 14 14 16 15 15 18 20 19 18 19 21 22 21 21 20 20 21 21 22 22 21 21 21 21 21
23 20 17 15 14 12 12 11 12 14 13 12 13 14 9 5 8 7 3 2 2 5 8 9 9 7 5 1 2 4 4 5 8 8 6 5 7 8 9 10 14 17 18 19 19 20 20 21 22 22 22 22 21 20 20 19 18 17 17 16 13 12 15 16 15 16 18 21 21 21 22 22 23 23 21 21 23 24 24 23 23 23 21 21 21
24 21 18 17 16 14 13 13 13 14 13 13 14 13 9 6 7 7 3 2 2 3 8 10 11 11 10 8 7 4 1 4 7 8 7 6 5 6 6 8 10 13 15 17 18 19 20 20 22 24 24 24 24 25 25 24 22 21 19 17 14 14 16 17 18 18 18 19 21 23 24 25 26 26 25 23 23 26 26 25 25 24 23 21 20
25 22 21 20 18 16 15 15 15 15 13 14 15 14 10 7 7 7 3 3 4 3 8 9 9 10 11 11 10 8 4 2 6 8 9 10 9 8 7 8 10 11 12 14 15 17 19 19 21 24 25 25 26 27 27 26 25 23 21 19 17 16 18 18 18 19 18 18 19 21 23 25 26 27 28 27 25 26 27 26 26 25 24 22 20
26 24 23 22 20 19 17 16 16 16 15 15 15 13 11 8 8 8 6 5 5 3 4 4 6 8 9 10 11 9 8 5 0 6 11 12 11 10 10 12 12 11 12 13 13 13 15 16 18 20 22 25 27 27 27 27 26 24 22 20 18 17 20 18 15 16 17 20 22 21 22 23 24 25 27 29 28 27 28 28 27 26 25 24 21
27 24 23 23 23 21 20 18 17 18 17 16 14 12 10 8 7 8 6 6 6 4 2 1 4 6 7 9 10 10 10 10 7 2 6 11 12 13 13 14 14 13 13 14 14 12 12 12 13 15 17 20 23 26 29 29 28 26 24 24 23 22 21 17 14 14 14 16 19 23 25 25 24 25 26 28 28 29 30 29 29 28 26 25 23
28 26 25 25 24 24 22 20 18 19 19 18 15 12 11 9 8 7 5 6 7 6 3 1 2 3 5 7 9 10 11 11 11 8 3 3 7 10 12 13 13 14 14 14 14 13 11 10 10 11 12 13 15 20 26 27 27 27 27 28 28 28 27 23 19 16 13 13 14 17 22 25 25 27 28 28 27 29 30 30 30 28 27 26 24
29 28 27 25 24 24 23 22 20 19 19 18 16 14 12 10 9 7 7 8 8 7 6 4 2 1 3 5 7 9 10 10 10 9 8 5 3 2 4 5 7 10 12 13 13 14 14 13 11 11 12 12 13 15 19 22 23 25 27 28 29 31 32 32 29 24 21 18 17 16 18 21 25 27 29 29 27 28 30 30 30 28 27 27 25
31 29 27 25 23 23 23 23 23 20 19 18 16 15 13 11 10 8 9 11 10 9 8 6 5 3 2 3 5 7 7 7 8 8 8 7 6 5 5 5 4 4 7 9 11 13 15 16 14 14 13 14 14 14 16 17 19 22 24 26 29 30 31 33 33 32 31 27 23 20 17 17 23 28 29 29 28 29 30 30 28 27 26 27 26
32 28 25 24 23 24 24 25 24 22 19 17 17 16 14 13 11 10 11 11 10 10 9 8 6 4 3 2 3 4 5 6 6 7 7 7 6 7 7 7 7 6 5 6 8 10 13 17 18 18 18 17 18 18 17 17 17 20 21 23 27 29 30 33 34 35 36 33 30 26 19 15 19 24 28 30 30 30 32 30 28 27 27 28 28
31 28 25 25 25 25 26 27 26 24 21 19 17 17 15 14 12 11 11 11 10 11 11 9 7 7 5 3 2 3 5 6 6 7 7 8 8 9 10 9 10 10 8 7 7 8 10 14 17 20 21 22 22 22 21 20 19 20 20 20 24 28 29 32 34 35 36 34 32 31 27 22 21 21 22 28 31 31 31 31 29 28 28 29 28
Wind_Direction
151 153 143 139 134 118 113 108 108 119 130 140 141 142 144 142 136 133 132 133 132 127 117 111 106 100 95 90 88 88 91 91 92 93 94 103 108 110 110 108 108 108 106 103 100 96 93 94 99 103 98 95 97 116 149 172 177 166 150 127 129 115 94 89 63 143 130 115 106 101 100 100 97 98 101 98 94 94 97 100 99 100 99 97 96
148 151 144 140 136 124 118 111 111 119 129 139 143 143 145 145 142 138 135 136 137 131 121 115 111 105 98 92 91 90 91 92 93 98 101 104 107 109 108 106 105 104 104 100 94 86 82 83 89 97 96 89 85 102 131 145 147 142 131 122 119 107 94 87 78 121 124 115 111 109 107 104 102 101 99 95 93 96 99 101 101 102 101 99 98
140 143 145 141 139 130 121 116 114 119 128 137 143 147 147 149 147 142 138 140 142 135 125 118 113 110 105 96 92 91 92 94 95 100 107 110 110 112 110 107 105 106 109 107 98 87 83 87 92 96 94 88 87 103 122 126 127 126 123 119 111 101 91 83 96 116 106 99 106 112 109 104 105 102 98 97 96 101 103 103 104 104 103 101 100
136 140 145 143 141 133 126 120 116 119 129 137 143 148 151 153 151 147 143 144 147 141 131 123 117 113 110 104 97 91 91 96 99 101 110 117 118 118 118 116 112 109 109 106 100 91 85 90 97 98 94 88 92 104 115 117 120 121 118 111 102 96 91 92 111 113 99 92 93 103 109 108 106 103 101 101 102 106 106 105 105 105 103 102 101
137 140 146 146 145 136 130 122 118 121 129 137 142 147 152 154 153 153 150 148 151 147 138 130 124 117 111 108 103 94 87 94 101 102 109 120 125 125 127 127 121 112 104 100 97 95 87 88 99 105 102 89 92 104 110 114 116 115 112 107 100 96 95 100 113 108 99 95 87 85 103 110 107 105 105 105 108 110 109 108 106 104 102 102 101
140 139 147 149 144 136 131 128 125 124 128 135 140 146 150 153 154 156 156 152 154 152 145 138 132 125 115 108 106 98 88 90 101 106 108 116 127 127 128 132 129 119 106 96 94 95 88 87 100 111 112 92 88 102 109 113 112 111 109 105 99 96 94 95 101 99 95 93 85 76 94 110 109 109 110 111 113 113 112 111 108 105 102 101 99
138 138 148 148 143 139 137 136 130 126 127 130 136 142 145 150 153 156 158 154 157 157 151 147 141 133 125 114 106 102 92 87 100 110 109 111 121 123 121 129 135 127 112 101 95 94 89 89 100 114 120 97 86 100 109 113 112 111 108 103 98 94 90 87 85 83 82 82 79 74 89 109 111 112 114 117 118 117 117 116 112 106 102 99 96
138 140 148 148 143 143 142 139 131 128 127 126 129 133 138 144 149 153 155 155 159 162 158 155 149 142 135 126 111 103 98 88 97 112 112 112 119 121 121 128 137 133 118 105 98 95 92 92 101 118 128 105 89 101 110 115 115 112 109 104 98 94 92 89 84 77 71 73 74 78 96 109 113 113 114 119 120 121 120 116 112 106 101 96 93
142 142 150 149 145 146 145 140 135 131 127 125 125 126 131 135 145 150 151 156 162 166 165 161 156 151 144 134 118 105 104 96 97 113 116 119 121 122 125 128 133 136 122 107 102 98 98 97 105 122 134 115 96 101 110 117 118 115 111 107 103 101 101 101 101 98 89 76 66 79 101 111 118 115 115 118 118 119 117 115 112 106 101 94 91
143 143 152 151 146 146 143 141 139 132 127 125 125 125 127 129 141 149 151 158 164 169 169 165 161 156 151 141 128 113 110 106 103 115 120 123 123 123 126 126 132 137 124 111 108 103 104 104 112 127 138 128 105 102 110 118 121 120 115 111 109 107 106 108 109 109 103 84 60 83 95 102 118 118 115 116 116 117 116 115 113 106 101 96 90
145 146 151 151 147 144 144 147 144 134 129 129 130 129 127 129 140 151 154 159 165 172 173 168 163 158 154 146 135 123 116 112 114 122 128 129 127 125 126 128 135 138 124 118 117 110 112 113 122 132 148 138 114 107 112 119 123 123 119 115 114 112 111 113 114 114 117 104 43 94 88 81 109 119 114 114 117 116 115 115 112 108 103 98 92
141 147 150 152 146 145 150 153 151 142 138 135 133 130 128 129 140 151 155 160 166 173 174 169 162 159 156 151 142 130 120 115 119 130 140 138 131 124 122 127 138 140 127 129 129 122 120 123 133 143 160 148 121 111 114 121 126 127 124 120 117 118 118 119 125 131 140 195 340 97 86 65 89 116 116 114 114 114 114 113 109 106 103 99 95
134 145 151 152 147 149 154 157 159 150 143 137 130 126 124 121 132 149 155 159 166 173 170 166 161 161 160 156 148 133 124 118 124 140 146 142 132 127 126 131 144 148 140 144 144 141 137 133 144 154 165 153 129 116 117 124 131 131 128 123 119 120 120 121 128 131 130 142 144 114 71 49 81 115 117 113 113 113 114 111 106 104 102 100 96
130 139 150 156 152 153 154 161 166 160 151 140 127 119 117 118 124 140 149 153 162 171 167 164 163 166 166 158 153 137 133 132 137 153 150 139 131 134 139 145 157 164 159 162 167 161 153 145 155 164 166 159 137 123 122 128 134 132 129 125 120 120 121 120 131 139 140 139 132 114 62 50 90 119 120 115 116 115 114 110 106 104 100 98 96
129 139 152 159 156 156 159 169 173 172 161 144 132 120 116 120 123 132 142 149 159 169 170 167 165 173 171 158 158 143 145 145 146 160 152 139 135 145 150 158 172 176 175 174 183 178 165 155 165 175 174 166 145 130 127 130 136 135 131 126 122 124 123 125 143 152 149 140 125 113 92 95 98 120 124 118 118 117 115 111 105 102 99 98 96
128 139 153 161 163 163 166 175 181 182 166 148 141 126 124 132 132 135 142 149 157 167 173 174 174 177 172 160 160 152 160 152 154 165 157 151 146 160 166 171 179 178 183 177 176 177 170 165 171 183 184 176 155 139 132 132 137 138 134 128 124 125 125 133 151 152 147 168 154 143 137 121 104 121 130 124 121 119 115 109 104 101 98 98 97
124 138 152 164 169 172 174 180 188 184 172 156 150 135 133 151 148 143 148 155 160 169 174 180 180 175 170 165 163 160 173 162 165 171 165 168 161 176 185 185 183 182 190 169 161 172 169 169 169 179 186 182 166 152 140 135 138 141 139 133 129 127 127 139 154 155 162 180 171 161 160 138 115 124 134 130 123 121 116 109 105 102 100 99 98
115 128 148 170 177 180 181 185 193 183 177 165 159 158 153 167 166 157 157 162 168 172 175 179 178 173 170 171 173 173 176 169 173 181 181 183 183 195 196 194 190 194 201 174 164 175 172 173 166 173 184 183 175 166 150 139 140 145 144 139 138 136 131 139 151 153 161 165 167 168 157 140 125 128 139 134 126 125 118 112 109 104 102 100 99
110 113 125 158 179 186 186 189 198 187 184 179 172 176 177 177 170 166 164 165 170 174 176 178 178 172 176 182 189 188 181 176 177 189 201 205 205 203 199 200 195 204 208 194 197 192 187 185 166 167 182 181 177 173 161 145 142 148 150 144 146 144 137 148 157 155 169 172 175 175 164 150 137 137 143 140 133 132 123 114 113 107 105 101 97
109 110 109 122 151 175 184 193 200 195 196 193 194 190 187 184 171 167 166 168 171 173 170 172 182 177 183 199 201 197 189 186 184 196 210 219 218 210 206 200 199 212 214 218 239 218 206 201 182 165 177 186 183 179 170 152 144 151 155 149 148 145 142 160 164 163 194 203 198 192 186 173 155 147 148 150 143 137 129 118 116 112 111 106 100
108 106 99 103 111 132 169 192 201 203 212 215 219 205 191 185 174 172 170 171 174 175 167 168 187 186 195 208 206 203 195 194 199 212 215 224 220 214 216 207 201 203 221 251 264 232 218 208 192 172 173 189 192 191 183 161 149 153 159 156 145 139 142 156 159 166 205 222 239 233 215 199 176 159 154 158 153 143 136 123 121 121 117 112 108
121 113 104 104 106 99 129 174 195 204 216 222 224 214 201 186 177 181 178 175 175 182 182 181 191 194 206 208 207 209 210 215 223 220 214 224 219 217 223 211 205 197 205 267 98 241 226 209 189 177 173 175 179 188 189 170 157 156 162 165 151 135 135 148 157 173 197 238 264 264 241 224 203 177 167 167 162 151 145 133 128 131 126 121 119
135 132 128 124 120 115 122 141 173 193 197 206 209 205 202 189 183 183 179 177 174 183 186 184 193 200 210 210 211 212 218 225 227 223 211 212 213 218 226 215 210 200 190 158 139 170 217 209 187 173 169 157 147 136 131 138 155 164 164 172 168 152 145 156 166 183 200 252 272 274 264 246 229 208 188 178 171 159 153 149 140 139 138 133 132
148 147 142 136 127 123 140 154 169 190 175 186 202 200 199 193 190 183 175 171 168 177 178 176 186 193 203 208 212 216 218 219 224 229 219 213 207 207 219 220 214 205 198 182 150 126 127 167 161 158 163 156 140 119 105 95 105 154 165 173 179 174 169 176 187 205 220 262 280 283 278 265 253 234 214 192 179 170 161 157 155 150 146 146 150
157 155 151 149 143 134 143 181 194 186 143 121 193 207 205 196 192 187 181 172 168 175 179 178 183 190 200 205 208 217 222 223 228 233 230 226 211 200 207 216 216 210 205 192 156 115 106 117 124 129 141 148 143 122 102 80 60 120 161 163 172 175 168 176 208 227 233 256 273 277 277 276 271 254 233 212 190 181 169 164 165 157 152 156 167
165 166 160 157 160 156 159 178 179 177 165 105 60 186 209 202 197 195 189 179 174 180 184 178 181 195 204 207 209 217 224 229 234 236 238 235 222 205 202 212 218 216 210 200 170 114 106 112 111 107 113 123 132 119 98 83 54 103 158 152 158 167 158 176 215 230 232 241 263 270 274 277 271 257 240 226 211 200 186 175 174 166 163 164 177
167 171 156 147 163 176 182 182 164 181 192 143 41 56 182 201 201 200 197 193 187 189 192 182 186 204 208 211 216 222 229 237 241 242 243 236 226 211 200 205 216 221 217 208 193 136 116 117 113 105 102 99 109 114 93 93 72 115 166 158 159 157 152 197 221 234 237 239 262 275 278 275 265 253 236 227 223 215 204 190 186 184 181 177 184
167 169 159 155 167 179 187 185 175 178 181 150 86 101 143 190 200 203 206 208 203 200 199 192 199 211 212 215 220 227 235 244 248 245 240 228 223 219 206 201 209 220 221 213 207 170 137 128 124 118 113 102 104 115 98 108 93 201 176 165 160 148 158 214 227 245 255 254 264 276 285 284 272 256 236 228 228 226 220 206 198 196 195 192 193
177 175 169 172 180 184 190 189 175 152 133 159 155 139 136 159 195 203 210 215 215 212 209 205 211 217 219 223 226 230 232 237 246 241 227 215 215 220 214 204 205 212 214 211 208 186 160 148 139 132 128 119 117 124 115 166 253 291 218 175 159 156 177 214 232 248 258 269 275 276 281 291 289 272 248 233 232 235 235 225 213 205 204 205 204
180 178 178 184 192 197 202 199 176 154 137 157 158 149 144 140 165 191 208 213 215 217 216 213 218 223 225 230 232 232 230 232 240 234 219 205 204 212 211 208 208 211 211 207 209 198 174 163 156 147 141 138 136 141 160 239 247 276 256 222 192 189 188 210 238 249 254 276 287 283 279 290 298 290 269 248 241 239 240 237 227 215 210 213 214
180 178 180 188 201 209 208 198 180 171 167 169 157 142 146 161 163 167 188 204 213 219 218 215 220 226 227 232 236 230 227 228 234 229 210 197 202 208 206 208 211 214 213 206 209 209 191 179 174 167 158 164 170 169 196 236 227 251 259 236 218 218 208 210 239 253 256 273 283 289 289 296 301 298 287 268 258 251 247 247 242 230 219 217 218
182 181 182 192 210 219 201 180 179 183 187 188 178 158 144 196 209 185 173 181 204 220 223 221 222 225 224 223 229 227 223 219 222 223 209 202 209 205 200 207 210 213 215 206 208 214 207 193 182 178 178 188 194 198 220 233 215 233 245 241 242 235 221 208 229 249 256 266 276 285 290 296 302 299 297 288 275 265 260 258 255 249 237 228 222
182 184 187 198 212 222 201 176 179 189 196 195 188 174 156 178 208 207 201 198 200 204 214 224 225 228 228 219 217 223 227 224 218 218 215 213 214 205 197 207 211 215 219 209 206 215 215 194 179 181 180 180 186 208 222 228 223 232 236 231 240 246 234 218 223 241 251 259 268 277 282 291 300 300 300 298 287 277 272 268 264 260 253 246 232
182 180 185 199 211 218 206 185 184 191 200 201 195 188 185 195 204 211 222 217 206 188 128 160 207 226 238 230 226 226 229 232 226 220 220 219 216 212 207 211 214 216 221 218 209 213 217 202 182 180 182 182 192 221 223 226 232 249 247 224 217 235 237 235 241 244 243 249 262 267 269 279 292 296 297 297 294 287 281 275 268 266 262 257 249
176 175 182 193 208 211 201 191 188 194 203 205 195 191 193 204 213 188 163 145 140 164 122 126 160 167 234 228 230 234 231 235 235 230 228 228 221 216 219 223 221 216 219 224 219 213 213 207 190 186 199 201 202 217 220 225 237 263 260 215 208 231 231 232 254 261 238 239 257 260 259 269 279 285 288 289 291 288 285 278 270 269 268 265 261
180 184 184 184 192 191 188 181 177 181 185 180 177 181 183 178 142 138 146 144 143 135 122 127 143 141 241 188 208 234 233 234 239 241 237 235 229 219 222 225 225 222 218 218 217 215 212 207 197 195 206 211 209 210 210 226 243 263 266 208 204 224 225 227 245 258 239 234 249 258 257 262 267 274 280 280 283 284 282 277 272 270 268 266 264
194 199 193 183 178 168 166 157 149 142 134 136 151 157 142 115 107 117 129 133 135 125 121 130 151 178 225 217 197 226 233 233 237 240 236 232 229 222 225 226 225 225 219 214 215 217 214 208 203 204 207 206 206 207 209 227 242 254 259 210 205 215 222 229 236 243 242 233 238 249 255 259 262 267 270 271 275 277 276 274 273 272 269 265 264
204 202 198 181 167 157 155 147 136 130 125 120 121 118 99 88 86 94 104 106 120 131 134 152 181 203 218 219 221 229 230 231 233 236 236 235 231 219 223 231 231 226 218 215 219 221 218 212 209 210 207 201 201 208 214 226 233 238 236 219 219 223 224 231 234 233 235 233 231 237 249 258 261 262 264 268 273 273 272 273 274 274 271 267 266
205 203 197 182 169 156 149 142 134 128 123 113 108 107 102 98 93 96 97 81 103 130 142 169 200 224 228 221 228 235 233 237 239 238 239 240 238 227 223 230 235 232 223 218 222 226 225 219 217 212 204 196 196 207 221 226 222 223 225 224 230 238 234 231 236 236 229 230 235 236 241 252 260 264 265 268 272 275 275 276 276 275 272 269 268
203 204 199 190 178 166 153 144 139 131 123 117 116 122 129 126 112 115 116 78 77 89 101 134 187 226 245 239 236 236 229 233 244 247 245 238 238 235 228 228 231 233 228 221 224 231 232 226 223 219 210 202 197 205 221 227 220 219 224 230 236 242 242 234 237 244 240 231 232 238 238 242 253 260 266 269 270 273 276 278 278 276 272 268 267
199 201 201 197 190 184 171 157 147 139 134 133 136 143 153 153 133 134 134 94 68 66 69 73 76 72 284 237 237 243 236 236 245 248 252 246 239 234 227 224 227 232 233 227 225 230 234 233 232 228 221 217 211 210 221 227 228 229 227 233 242 238 236 239 241 246 250 242 232 233 236 239 244 247 257 266 266 268 272 275 278 279 275 269 265
198 199 201 200 201 197 186 177 163 156 153 151 156 159 172 171 149 156 157 116 85 66 55 48 47 38 34 85 241 272 262 250 248 241 238 250 252 245 236 229 225 230 234 234 233 232 233 233 234 234 230 229 226 221 227 232 236 242 239 235 237 227 224 236 248 253 256 248 236 231 230 234 239 240 246 255 259 264 268 270 273 277 277 271 266
200 199 199 199 206 205 195 190 181 177 171 166 174 180 192 192 168 177 178 152 167 81 48 38 34 27 30 40 40 27 327 245 243 242 229 219 230 238 241 239 234 231 232 234 236 238 239 234 233 235 232 232 233 231 234 237 239 245 250 245 234 229 226 229 241 254 261 254 243 236 231 230 234 238 240 245 252 258 262 265 268 272 276 274 268
198 197 197 196 203 208 205 199 189 192 187 176 188 198 202 200 184 185 174 168 178 86 48 42 36 28 29 32 35 34 18 281 233 232 228 223 221 221 227 236 239 238 237 235 233 234 238 239 238 238 237 235 236 237 238 240 241 241 246 246 238 236 238 236 240 251 260 260 253 244 239 236 237 236 234 237 244 251 255 260 264 268 272 274 270
196 197 197 197 201 207 211 207 194 196 197 191 198 203 203 201 191 183 167 164 163 97 61 50 38 30 29 30 31 31 31 33 223 216 222 229 230 227 232 240 244 242 239 240 238 234 232 235 238 241 243 242 243 244 245 246 246 243 241 239 235 233 236 239 247 254 254 256 257 253 248 246 245 239 231 231 237 245 251 255 259 263 267 272 271
198 201 201 200 200 205 213 212 200 196 199 205 208 204 205 209 199 187 172 167 167 154 150 40 35 32 26 23 25 26 34 46 52 87 219 235 240 240 241 248 253 250 243 239 237 236 234 236 241 245 245 247 249 249 249 250 252 251 246 241 238 238 237 235 245 254 248 247 254 256 254 251 248 242 236 236 237 240 246 252 256 259 263 267 269
201 205 204 202 201 206 213 215 209 201 201 210 213 209 213 216 205 193 178 179 185 191 217 298 9 27 21 16 19 21 26 39 50 55 63 244 250 252 253 255 258 258 254 245 236 231 229 234 246 256 258 255 255 253 250 250 253 254 252 249 246 244 243 242 244 250 251 246 245 250 254 253 249 243 241 243 241 237 240 246 252 258 261 262 263
203 205 204 204 204 207 213 217 217 214 210 211 212 213 220 222 218 206 184 192 210 220 236 253 261 311 5 8 11 16 18 26 35 41 49 50 31 324 291 283 272 267 265 259 248 236 227 226 231 247 262 265 262 259 255 253 254 255 254 254 251 246 244 245 245 245 251 255 252 253 257 254 248 245 244 247 243 236 237 243 249 255 257 256 257
204 205 205 206 207 209 214 217 220 223 219 214 213 216 222 224 225 215 199 207 223 228 237 243 242 272 322 347 3 12 11 13 16 18 27 36 38 35 21 6 348 306 287 280 269 255 241 234 230 234 247 258 261 263 261 260 260 259 256 256 255 251 247 247 246 244 246 252 257 261 264 259 249 243 244 248 246 239 238 242 248 251 252 250 249
202 203 205 208 209 210 214 218 222 226 225 221 219 219 223 227 225 218 216 223 227 226 236 238 230 241 260 290 340 353 351 356 2 356 357 6 14 16 11 4 357 347 324 302 288 275 260 248 242 239 241 246 253 259 263 266 266 263 261 259 257 256 254 251 248 245 245 247 251 254 257 257 253 247 244 246 246 244 242 244 246 246 250 248 245
201 202 204 208 209 209 213 219 223 227 228 228 225 223 225 231 231 227 232 237 232 230 240 244 237 237 240 255 292 316 331 340 342 335 334 340 348 352 351 348 343 336 329 316 299 288 276 264 257 252 251 251 251 253 258 265 268 265 264 263 259 257 257 256 253 248 244 244 247 250 251 251 254 256 250 246 246 245 245 246 245 244 248 247 242
Height
1528 1528 1529 1530 1532 1532 1533 1532 1532 1532 1532 1531 1531 1532 1532 1533 1533 1534 1535 1536 1536 1537 1537 1538 1539 1539 1539 1540 1540 1540 1541 1542 1542 1543 1543 1543 1544 1544 1545 1545 1546 1547 1548 1548 1549 1549 1549 1549 1550 1550 1550 1551 1551 1552 1552 1552 1553 1554 1555 1556 1556 1557 1558 1558 1559 1560 1559 1559 1559 1560 1560 1560 1561 1561 1561 1562 1563 1563 1563 1563 1563 1563 1563 1562 1562
1526 1528 1528 1529 1531 1531 1532 1531 1532 1531 1531 1531 1531 1532 1532 1533 1533 1534 1535 1536 1536 1537 1537 1538 1539 1539 1540 1540 1541 1541 1542 1542 1543 1543 1544 1544 1545 1545 1546 1547 1547 1548 1548 1549 1550 1550 1550 1550 1550 1550 1551 1551 1552 1552 1552 1553 1554 1555 1556 1556 1557 1557 1558 1559 1559 1560 1560 1560 1560 1560 1561 1561 1562 1562 1563 1563 1564 1564 1564 1564 1564 1564 1564 1564 1564
1525 1527 1527 1528 1530 1531 1531 1531 1531 1530 1531 1531 1531 1532 1532 1533 1533 1534 1535 1536 1537 1537 1538 1538 1539 1540 1540 1540 1541 1542 1543 1543 1543 1544 1545 1545 1546 1547 1547 1548 1548 1549 1550 1550 1551 1551 1551 1550 1551 1551 1551 1552 1553 1553 1553 1554 1555 1556 1556 1557 1557 1558 1559 1559 1560 1561 1561 1561 1561 1561 1561 1562 1562 1563 1564 1565 1565 1565 1565 1565 1565 1565 1565 1565 1565
1525 1525 1527 1528 1529 1530 1531 1531 1530 1530 1530 1530 1530 1531 1531 1532 1533 1534 1535 1536 1536 1537 1538 1538 1540 1540 1541 1541 1542 1543 1544 1544 1544 1545 1545 1546 1547 1547 1548 1549 1549 1550 1551 1551 1552 1552 1552 1552 1552 1552 1552 1553 1554 1554 1554 1555 1555 1556 1557 1558 1558 1558 1559 1560 1561 1562 1561 1562 1562 1563 1562 1562 1563 1564 1565 1566 1566 1566 1566 1566 1566 1566 1566 1566 1566
1524 1525 1526 1527 1528 1529 1530 1530 1530 1529 1529 1529 1530 1530 1531 1532 1532 1534 1534 1536 1536 1537 1538 1539 1539 1540 1541 1542 1542 1543 1544 1545 1545 1546 1546 1547 1547 1548 1549 1549 1550 1551 1552 1552 1552 1553 1553 1553 1553 1553 1554 1554 1555 1555 1555 1556 1556 1557 1558 1558 1558 1559 1560 1561 1562 1562 1562 1562 1563 1564 1564 1564 1564 1565 1566 1567 1567 1567 1566 1567 1567 1567 1568 1568 1567
1523 1524 1526 1526 1528 1529 1530 1530 1530 1529 1529 1529 1529 1530 1531 1531 1532 1533 1534 1535 1536 1537 1538 1539 1539 1540 1542 1542 1543 1544 1545 1546 1546 1546 1547 1548 1548 1549 1550 1550 1551 1551 1552 1553 1553 1553 1554 1554 1554 1554 1555 1555 1556 1556 1556 1557 1557 1558 1559 1559 1559 1560 1561 1562 1563 1563 1563 1563 1564 1565 1566 1565 1565 1566 1567 1567 1567 1567 1567 1567 1568 1568 1569 1569 1569
1523 1524 1525 1526 1528 1529 1529 1530 1530 1530 1529 1530 1530 1530 1530 1531 1532 1533 1534 1535 1536 1537 1538 1539 1539 1540 1542 1543 1544 1544 1545 1546 1547 1547 1547 1548 1549 1550 1550 1551 1552 1552 1552 1553 1554 1554 1555 1555 1555 1555 1556 1556 1557 1557 1557 1557 1558 1559 1560 1561 1560 1561 1562 1563 1563 1564 1564 1564 1564 1566 1567 1567 1566 1567 1568 1568 1568 1568 1568 1568 1568 1569 1570 1570 1570
1523 1524 1525 1527 1528 1528 1529 1530 1530 1530 1530 1530 1530 1530 1530 1531 1532 1533 1534 1535 1536 1537 1538 1538 1539 1540 1542 1543 1544 1545 1546 1547 1547 1548 1548 1548 1549 1550 1551 1552 1552 1553 1553 1554 1554 1555 1555 1556 1556 1556 1557 1557 1558 1558 1559 1559 1559 1561 1562 1562 1562 1563 1563 1564 1565 1565 1565 1565 1565 1567 1568 1568 1568 1568 1568 1569 1569 1569 1569 1569 1569 1570 1571 1571 1571
1524 1524 1525 1527 1528 1529 1529 1530 1531 1530 1530 1530 1530 1531 1531 1531 1532 1533 1534 1535 1536 1537 1538 1538 1539 1540 1542 1543 1544 1545 1546 1547 1548 1548 1549 1549 1550 1550 1551 1552 1553 1554 1554 1554 1555 1556 1556 1557 1557 1557 1558 1559 1559 1559 1560 1560 1560 1562 1563 1563 1563 1563 1564 1565 1566 1566 1566 1566 1566 1568 1569 1569 1569 1569 1569 1570 1570 1570 1570 1570 1570 1571 1571 1572 1572
1523 1524 1526 1527 1528 1529 1530 1530 1530 1530 1530 1530 1531 1531 1531 1532 1532 1533 1534 1534 1536 1537 1538 1539 1540 1541 1542 1543 1544 1545 1546 1547 1548 1549 1549 1550 1551 1551 1552 1552 1553 1554 1555 1555 1555 1556 1557 1557 1558 1558 1559 1559 1560 1560 1561 1561 1562 1563 1564 1564 1564 1564 1564 1566 1566 1566 1567 1567 1568 1569 1570 1569 1570 1570 1570 1571 1571 1571 1571 1571 1571 1572 1572 1573 1573
1523 1524 1526 1527 1528 1529 1530 1530 1530 1530 1530 1530 1531 1531 1531 1532 1532 1533 1534 1535 1536 1537 1538 1539 1540 1541 1542 1543 1544 1545 1547 1548 1548 1549 1550 1551 1551 1552 1552 1553 1554 1554 1555 1556 1556 1556 1557 1558 1558 1559 1559 1560 1561 1561 1561 1562 1562 1563 1564 1565 1564 1565 1565 1566 1567 1567 1567 1568 1569 1570 1570 1570 1571 1571 1571 1572 1572 1572 1572 1572 1572 1572 1573 1573 1573
1523 1524 1526 1528 1528 1529 1530 1530 1530 1530 1530 1530 1531 1531 1532 1532 1533 1533 1534 1535 1536 1538 1539 1540 1541 1542 1543 1544 1545 1546 1547 1548 1549 1549 1550 1551 1552 1553 1553 1553 1554 1555 1555 1556 1556 1557 1557 1558 1559 1559 1560 1560 1561 1562 1562 1563 1563 1564 1565 1565 1565 1566 1566 1567 1567 1567 1568 1569 1570 1570 1570 1571 1571 1571 1572 1572 1572 1572 1573 1573 1573 1573 1573 1574 1574
1523 1524 1526 1528 1528 1529 1529 1530 1530 1530 1531 1531 1531 1532 1532 1533 1534 1534 1535 1536 1537 1538 1540 1541 1542 1543 1544 1544 1545 1546 1547 1548 1549 1550 1550 1551 1552 1553 1553 1554 1554 1555 1556 1556 1557 1557 1558 1558 1559 1560 1560 1561 1562 1562 1563 1563 1564 1565 1566 1566 1567 1567 1567 1567 1567 1568 1569 1570 1571 1571 1571 1572 1572 1572 1572 1573 1573 1573 1573 1574 1574 1574 1574 1574 1574
1524 1525 1526 1527 1528 1529 1529 1530 1530 1531 1531 1532 1532 1533 1533 1534 1534 1535 1536 1537 1538 1539 1541 1542 1543 1544 1544 1545 1545 1546 1547 1548 1549 1550 1551 1551 1552 1553 1554 1554 1555 1555 1556 1556 1557 1557 1558 1559 1559 1560 1560 1561 1562 1563 1563 1564 1565 1566 1567 1567 1568 1568 1568 1568 1567 1567 1569 1570 1570 1571 1571 1572 1573 1573 1573 1573 1574 1574 1574 1574 1574 1575 1574 1575 1575
1524 1525 1526 1528 1528 1529 1529 1530 1531 1531 1532 1532 1533 1533 1534 1534 1535 1536 1537 1538 1539 1540 1541 1542 1543 1545 1545 1545 1546 1546 1547 1548 1549 1550 1551 1552 1553 1554 1554 1554 1555 1556 1556 1557 1557 1557 1558 1559 1559 1560 1561 1562 1562 1563 1563 1564 1566 1567 1567 1568 1569 1569 1569 1569 1567 1567 1569 1570 1570 1571 1571 1572 1573 1574 1574 1574 1574 1574 1574 1574 1575 1575 1575 1575 1575
1525 1526 1526 1528 1528 1529 1530 1530 1531 1531 1532 1533 1533 1534 1534 1535 1535 1536 1537 1538 1539 1540 1541 1542 1543 1545 1545 1546 1546 1546 1547 1548 1549 1550 1551 1552 1553 1554 1554 1555 1555 1556 1557 1557 1557 1557 1558 1559 1560 1560 1561 1562 1563 1564 1564 1565 1566 1567 1568 1569 1569 1569 1570 1569 1567 1567 1569 1570 1570 1571 1572 1572 1573 1574 1574 1574 1574 1574 1575 1574 1575 1575 1575 1575 1575
1525 1526 1527 1528 1528 1529 1530 1530 1531 1531 1532 1533 1534 1534 1535 1535 1536 1536 1537 1538 1539 1540 1541 1542 1543 1544 1545 1546 1546 1547 1548 1548 1549 1550 1551 1552 1553 1554 1555 1555 1555 1556 1557 1557 1557 1557 1558 1559 1560 1560 1561 1562 1563 1564 1564 1565 1566 1568 1568 1569 1570 1570 1570 1570 1568 1569 1570 1570 1571 1571 1572 1572 1573 1574 1574 1574 1574 1575 1575 1575 1575 1575 1575 1576 1576
1526 1527 1527 1528 1528 1529 1530 1530 1531 1531 1532 1533 1534 1535 1535 1536 1536 1537 1537 1538 1539 1540 1541 1542 1543 1544 1545 1546 1547 1547 1548 1549 1550 1551 1552 1553 1553 1554 1555 1555 1556 1556 1557 1557 1557 1558 1558 1559 1560 1560 1561 1562 1563 1564 1565 1565 1566 1568 1568 1569 1570 1571 1571 1570 1570 1570 1570 1571 1571 1572 1572 1572 1573 1574 1574 1575 1574 1575 1575 1575 1575 1575 1576 1576 1576
1527 1528 1528 1528 1528 1529 1530 1530 1531 1531 1533 1533 1534 1535 1535 1536 1536 1537 1537 1538 1539 1540 1541 1543 1543 1544 1545 1546 1547 1548 1548 1549 1550 1551 1552 1553 1554 1554 1555 1555 1556 1556 1557 1557 1557 1558 1558 1559 1560 1560 1561 1562 1563 1564 1565 1565 1566 1568 1568 1569 1570 1571 1572 1570 1570 1571 1571 1571 1571 1572 1572 1572 1573 1574 1574 1575 1575 1575 1575 1575 1575 1576 1576 1576 1576
1528 1528 1528 1529 1529 1530 1530 1530 1531 1532 1532 1533 1534 1535 1535 1536 1537 1537 1537 1538 1539 1540 1541 1542 1544 1544 1545 1546 1547 1548 1548 1549 1550 1551 1552 1553 1554 1554 1555 1555 1556 1556 1557 1557 1557 1557 1558 1559 1559 1560 1561 1562 1563 1564 1565 1565 1566 1567 1569 1569 1570 1571 1572 1571 1571 1572 1572 1572 1572 1572 1572 1573 1573 1573 1574 1575 1575 1575 1575 1575 1576 1576 1576 1576 1577
1528 1529 1529 1530 1530 1530 1530 1530 1531 1531 1532 1532 1533 1534 1535 1536 1537 1537 1538 1539 1539 1541 1542 1543 1544 1544 1546 1546 1547 1547 1548 1549 1550 1551 1552 1553 1554 1555 1555 1556 1556 1557 1557 1557 1557 1557 1558 1558 1559 1560 1561 1562 1563 1564 1565 1566 1566 1567 1569 1570 1570 1571 1571 1571 1572 1572 1572 1573 1573 1573 1573 1573 1573 1573 1574 1575 1575 1575 1575 1576 1576 1576 1576 1576 1577
1528 1529 1529 1530 1530 1530 1530 1531 1531 1531 1532 1532 1533 1534 1535 1536 1536 1537 1538 1539 1540 1541 1542 1543 1544 1544 1545 1546 1546 1547 1547 1548 1549 1550 1551 1552 1554 1555 1555 1556 1556 1557 1557 1557 1557 1557 1558 1558 1559 1560 1561 1562 1563 1564 1565 1566 1567 1567 1568 1570 1571 1572 1571 1571 1571 1572 1573 1573 1573 1573 1573 1573 1573 1573 1574 1574 1575 1575 1575 1576 1576 1576 1576 1576 1577
1528 1529 1529 1529 1530 1530 1530 1530 1530 1531 1531 1531 1532 1533 1534 1535 1536 1537 1537 1539 1540 1541 1542 1542 1543 1544 1544 1545 1545 1546 1547 1547 1548 1550 1551 1552 1553 1555 1555 1556 1557 1557 1557 1557 1557 1557 1557 1558 1558 1559 1560 1562 1563 1564 1565 1566 1567 1568 1569 1570 1571 1572 1571 1571 1571 1572 1573 1573 1573 1573 1573 1573 1573 1573 1574 1574 1574 1575 1575 1575 1576 1576 1576 1576 1577
1528 1528 1529 1529 1530 1530 1530 1530 1530 1530 1531 1531 1532 1532 1533 1534 1535 1536 1537 1538 1539 1540 1541 1541 1542 1542 1543 1544 1544 1545 1546 1547 1548 1549 1550 1552 1553 1554 1555 1556 1557 1557 1557 1558 1557 1557 1557 1558 1558 1558 1560 1561 1562 1564 1565 1566 1567 1568 1569 1570 1571 1572 1572 1571 1572 1572 1573 1573 1574 1574 1574 1573 1573 1573 1573 1574 1574 1575 1575 1575 1575 1576 1576 1576 1576
1528 1528 1529 1530 1530 1530 1530 1530 1530 1530 1531 1531 1531 1532 1533 1534 1535 1536 1537 1537 1539 1539 1539 1540 1541 1541 1542 1543 1543 1544 1545 1546 1547 1549 1550 1551 1552 1553 1554 1556 1557 1558 1558 1558 1558 1558 1558 1558 1558 1558 1559 1561 1562 1563 1564 1565 1567 1568 1569 1570 1570 1572 1572 1571 1572 1572 1573 1573 1574 1574 1574 1573 1573 1573 1573 1574 1574 1575 1575 1575 1575 1576 1576 1576 1576
1528 1528 1529 1529 1530 1530 1530 1529 1529 1530 1530 1530 1531 1532 1533 1533 1534 1535 1536 1537 1538 1538 1538 1539 1541 1541 1541 1542 1543 1544 1545 1546 1547 1548 1550 1551 1552 1552 1554 1556 1557 1558 1558 1558 1559 1559 1558 1558 1559 1559 1560 1561 1562 1563 1564 1565 1567 1569 1570 1570 1570 1571 1572 1571 1572 1572 1573 1573 1573 1573 1574 1574 1573 1573 1573 1574 1574 1575 1575 1575 1576 1576 1576 1576 1576
1527 1528 1528 1529 1529 1529 1530 1529 1529 1529 1529 1530 1530 1531 1532 1533 1534 1535 1536 1536 1537 1538 1538 1540 1541 1540 1541 1542 1543 1544 1545 1546 1547 1548 1549 1550 1551 1552 1553 1555 1556 1557 1558 1558 1559 1559 1559 1559 1559 1560 1561 1562 1563 1564 1564 1565 1568 1570 1570 1571 1571 1571 1571 1572 1572 1573 1573 1573 1573 1573 1573 1573 1573 1573 1573 1573 1574 1575 1575 1575 1576 1576 1576 1576 1576
1527 1527 1528 1528 1528 1528 1528 1529 1529 1529 1529 1530 1530 1531 1531 1532 1533 1535 1536 1536 1537 1537 1538 1540 1540 1540 1541 1542 1543 1543 1544 1545 1546 1547 1548 1549 1550 1552 1552 1554 1555 1557 1558 1558 1558 1559 1559 1559 1560 1560 1561 1562 1563 1564 1564 1566 1568 1570 1571 1571 1571 1571 1572 1572 1572 1573 1573 1573 1573 1573 1573 1573 1573 1573 1573 1573 1573 1574 1575 1575 1575 1576 1576 1575 1575
1526 1526 1527 1527 1527 1527 1527 1528 1529 1529 1528 1529 1529 1530 1530 1531 1532 1533 1535 1536 1536 1537 1538 1540 1540 1539 1541 1541 1542 1543 1544 1545 1545 1546 1547 1548 1549 1551 1552 1553 1554 1555 1556 1557 1558 1558 1558 1559 1560 1560 1561 1562 1563 1564 1565 1566 1568 1569 1570 1571 1571 1572 1572 1572 1572 1573 1573 1573 1573 1573 1573 1573 1573 1573 1573 1573 1573 1573 1574 1575 1575 1575 1575 1575 1575
1526 1526 1526 1526 1526 1526 1527 1528 1529 1529 1528 1528 1528 1529 1530 1530 1531 1532 1533 1534 1535 1535 1537 1539 1539 1539 1540 1540 1541 1542 1543 1544 1544 1545 1545 1546 1547 1549 1550 1552 1552 1553 1555 1556 1557 1557 1557 1558 1559 1559 1560 1562 1563 1564 1565 1567 1568 1569 1569 1570 1571 1572 1573 1572 1572 1572 1573 1573 1573 1573 1573 1573 1572 1572 1572 1572 1573 1573 1573 1573 1574 1575 1575 1575 1575
1525 1525 1525 1525 1525 1525 1526 1527 1528 1528 1528 1528 1528 1528 1529 1530 1530 1532 1532 1533 1534 1534 1536 1538 1539 1538 1539 1540 1540 1541 1542 1543 1543 1544 1544 1545 1546 1548 1550 1550 1551 1553 1554 1555 1556 1556 1557 1557 1558 1559 1559 1561 1563 1564 1566 1567 1567 1568 1569 1570 1570 1571 1572 1573 1572 1572 1573 1573 1573 1573 1573 1572 1572 1572 1572 1572 1572 1572 1572 1572 1573 1574 1575 1575 1575
1524 1524 1524 1524 1524 1524 1525 1526 1527 1527 1527 1528 1528 1528 1529 1529 1530 1531 1532 1532 1533 1534 1535 1537 1538 1538 1539 1540 1540 1541 1541 1542 1543 1543 1544 1545 1546 1548 1549 1549 1550 1552 1554 1555 1555 1556 1556 1557 1557 1558 1559 1560 1562 1565 1566 1567 1567 1567 1568 1569 1570 1570 1571 1572 1572 1571 1572 1572 1572 1573 1573 1572 1572 1572 1572 1572 1571 1571 1571 1572 1572 1573 1574 1574 1574
1523 1524 1524 1524 1524 1524 1525 1525 1525 1526 1526 1527 1528 1528 1528 1528 1529 1530 1531 1532 1532 1533 1535 1536 1537 1537 1538 1539 1540 1540 1541 1541 1542 1542 1543 1544 1546 1547 1549 1549 1550 1551 1552 1553 1554 1555 1556 1556 1557 1558 1558 1560 1562 1564 1565 1566 1566 1567 1567 1568 1568 1569 1570 1571 1572 1571 1571 1572 1572 1572 1572 1572 1572 1572 1572 1571 1571 1571 1571 1571 1571 1571 1572 1573 1574
1523 1523 1524 1524 1524 1524 1524 1524 1525 1525 1525 1526 1527 1528 1528 1528 1529 1530 1531 1532 1532 1533 1534 1535 1536 1536 1536 1538 1539 1539 1540 1540 1541 1541 1542 1543 1544 1546 1548 1548 1549 1550 1551 1552 1553 1554 1555 1556 1557 1557 1558 1560 1561 1563 1564 1564 1565 1565 1565 1566 1567 1568 1569 1570 1571 1571 1570 1571 1571 1571 1571 1571 1571 1571 1571 1571 1571 1570 1570 1570 1570 1570 1570 1571 1572
1523 1523 1523 1524 1524 1524 1524 1524 1525 1525 1526 1527 1527 1528 1528 1528 1529 1530 1531 1531 1531 1532 1534 1535 1536 1536 1535 1536 1537 1538 1539 1539 1540 1540 1540 1541 1543 1545 1547 1547 1548 1549 1549 1551 1552 1553 1554 1555 1556 1556 1557 1559 1560 1561 1562 1563 1563 1563 1563 1564 1565 1566 1567 1568 1569 1570 1570 1569 1570 1570 1570 1571 1571 1571 1570 1570 1570 1570 1570 1570 1570 1569 1570 1570 1570
1523 1523 1523 1524 1523 1524 1524 1524 1525 1525 1526 1527 1527 1527 1528 1529 1529 1530 1530 1531 1532 1533 1534 1534 1535 1535 1535 1536 1537 1536 1537 1538 1538 1539 1540 1541 1542 1544 1545 1546 1547 1548 1549 1549 1551 1552 1553 1554 1555 1555 1556 1558 1559 1560 1561 1561 1562 1562 1562 1563 1564 1565 1566 1567 1568 1569 1569 1569 1568 1569 1569 1569 1570 1570 1570 1570 1569 1569 1569 1569 1569 1568 1569 1569 1569
1522 1523 1523 1523 1523 1524 1524 1524 1525 1525 1526 1527 1527 1528 1529 1529 1529 1530 1531 1531 1532 1532 1533 1534 1534 1535 1535 1536 1536 1536 1535 1536 1537 1538 1539 1540 1542 1544 1545 1545 1546 1547 1548 1549 1550 1552 1553 1553 1554 1554 1555 1557 1558 1560 1560 1561 1561 1561 1562 1562 1563 1563 1564 1565 1566 1567 1568 1568 1567 1567 1567 1568 1568 1568 1568 1569 1568 1568 1568 1568 1568 1568 1567 1568 1568
1521 1522 1523 1523 1524 1524 1524 1525 1525 1526 1527 1527 1528 1528 1529 1529 1530 1530 1531 1531 1532 1532 1533 1534 1534 1534 1535 1535 1536 1535 1534 1534 1535 1537 1538 1539 1541 1543 1544 1544 1545 1546 1546 1548 1549 1550 1551 1552 1553 1553 1554 1555 1557 1558 1559 1559 1560 1560 1561 1561 1561 1562 1563 1563 1564 1565 1566 1567 1567 1566 1566 1566 1566 1567 1567 1567 1567 1567 1567 1567 1567 1567 1566 1566 1566
1520 1521 1522 1523 1524 1524 1525 1525 1526 1526 1527 1527 1528 1529 1530 1530 1531 1531 1531 1531 1532 1532 1533 1533 1533 1534 1534 1535 1535 1534 1534 1534 1534 1535 1536 1537 1538 1541 1543 1543 1543 1544 1545 1547 1548 1548 1549 1550 1551 1552 1553 1554 1555 1556 1557 1558 1559 1559 1559 1559 1560 1561 1561 1562 1562 1563 1564 1565 1566 1566 1565 1565 1564 1565 1565 1565 1565 1565 1565 1565 1566 1565 1565 1565 1565
1518 1520 1521 1522 1523 1524 1525 1525 1526 1527 1527 1528 1528 1529 1530 1531 1531 1531 1531 1531 1532 1532 1533 1533 1533 1533 1534 1534 1534 1533 1534 1534 1533 1534 1534 1536 1537 1538 1540 1542 1542 1542 1543 1545 1545 1546 1547 1548 1549 1550 1551 1552 1553 1554 1555 1557 1557 1557 1558 1558 1558 1559 1560 1561 1560 1560 1561 1562 1563 1564 1564 1564 1563 1563 1563 1563 1563 1563 1563 1564 1564 1563 1563 1564 1564
1516 1517 1519 1521 1522 1523 1525 1525 1526 1527 1528 1528 1529 1530 1530 1531 1531 1531 1531 1531 1531 1532 1532 1533 1533 1533 1533 1533 1533 1532 1533 1533 1533 1533 1533 1534 1535 1536 1538 1540 1541 1541 1541 1542 1543 1544 1545 1546 1547 1548 1550 1550 1551 1552 1553 1555 1556 1556 1556 1556 1556 1556 1558 1559 1559 1559 1559 1560 1560 1561 1562 1563 1563 1562 1562 1561 1561 1561 1562 1562 1562 1562 1562 1562 1562
1513 1515 1516 1519 1521 1523 1524 1525 1526 1527 1528 1528 1529 1529 1530 1531 1531 1531 1531 1532 1531 1532 1532 1532 1532 1533 1533 1533 1533 1533 1533 1533 1532 1532 1533 1533 1534 1535 1536 1538 1538 1539 1539 1540 1541 1542 1543 1544 1545 1546 1547 1548 1549 1550 1551 1553 1554 1554 1555 1555 1555 1555 1555 1556 1557 1557 1557 1557 1558 1558 1559 1560 1561 1561 1561 1560 1560 1559 1560 1560 1560 1560 1560 1560 1560
1511 1513 1515 1517 1519 1521 1523 1524 1526 1526 1527 1528 1529 1529 1530 1531 1531 1531 1532 1532 1532 1532 1531 1531 1531 1532 1532 1532 1533 1532 1532 1532 1532 1532 1532 1532 1533 1533 1534 1535 1536 1536 1537 1538 1539 1540 1541 1542 1543 1544 1544 1546 1547 1548 1549 1551 1552 1553 1553 1553 1553 1554 1554 1554 1554 1554 1555 1555 1556 1556 1557 1557 1557 1558 1559 1559 1558 1557 1558 1558 1558 1558 1558 1558 1559
1510 1512 1513 1515 1517 1519 1521 1523 1525 1525 1526 1528 1528 1529 1530 1530 1531 1531 1531 1532 1532 1531 1531 1531 1531 1531 1531 1532 1532 1532 1532 1531 1531 1531 1531 1531 1531 1532 1533 1533 1534 1535 1535 1536 1537 1538 1539 1540 1541 1541 1542 1543 1544 1545 1547 1548 1549 1550 1551 1551 1552 1552 1551 1552 1552 1552 1552 1553 1553 1554 1554 1554 1555 1556 1556 1556 1556 1555 1556 1556 1556 1556 1556 1556 1557
1508 1510 1511 1513 1514 1516 1519 1521 1523 1524 1525 1527 1528 1529 1529 1530 1530 1531 1531 1531 1531 1531 1531 1532 1532 1531 1531 1532 1532 1532 1532 1531 1531 1531 1531 1531 1531 1532 1532 1532 1533 1534 1534 1535 1535 1536 1537 1538 1539 1539 1540 1541 1542 1543 1544 1545 1546 1547 1548 1549 1549 1549 1548 1549 1550 1550 1550 1550 1550 1551 1551 1552 1552 1553 1553 1554 1554 1554 1554 1554 1554 1555 1554 1554 1555
1506 1508 1510 1511 1513 1515 1517 1519 1522 1523 1524 1525 1527 1528 1528 1529 1529 1530 1530 1530 1530 1531 1531 1532 1531 1531 1531 1531 1532 1531 1531 1531 1531 1531 1531 1531 1532 1532 1532 1532 1533 1533 1534 1534 1534 1535 1536 1536 1537 1538 1538 1539 1540 1540 1541 1542 1543 1544 1545 1546 1547 1547 1546 1548 1548 1547 1548 1548 1548 1549 1549 1549 1550 1550 1551 1551 1552 1552 1551 1551 1552 1553 1553 1552 1552
1505 1507 1509 1511 1512 1514 1516 1518 1520 1521 1523 1524 1525 1526 1527 1527 1528 1528 1529 1529 1529 1530 1531 1531 1531 1531 1531 1531 1531 1531 1531 1531 1531 1531 1531 1531 1532 1532 1532 1532 1532 1532 1533 1533 1533 1534 1535 1535 1536 1536 1536 1537 1538 1538 1538 1540 1540 1541 1542 1543 1544 1545 1545 1546 1546 1546 1546 1546 1546 1546 1546 1547 1547 1548 1548 1548 1549 1549 1549 1550 1550 1550 1551 1550 1550
1504 1506 1508 1509 1511 1513 1515 1517 1518 1520 1521 1523 1524 1525 1525 1526 1527 1527 1528 1528 1528 1529 1530 1530 1531 1531 1531 1531 1531 1530 1530 1530 1531 1531 1531 1531 1531 1531 1531 1532 1532 1532 1532 1532 1532 1533 1533 1534 1534 1534 1534 1535 1536 1536 1536 1537 1538 1538 1539 1540 1541 1542 1543 1543 1544 1544 1544 1543 1543 1544 1544 1544 1545 1545 1545 1546 1546 1546 1547 1547 1548 1548 1548 1548 1548
1502 1504 1506 1508 1510 1512 1515 1516 1517 1518 1520 1521 1523 1523 1524 1525 1526 1526 1527 1528 1528 1529 1529 1530 1530 1530 1530 1530 1530 1530 1530 1530 1530 1530 1531 1531 1531 1531 1531 1531 1531 1531 1531 1531 1531 1532 1532 1532 1532 1532 1533 1533 1534 1534 1534 1535 1535 1536 1536 1537 1538 1538 1539 1540 1540 1541 1542 1541 1541 1541 1542 1542 1542 1542 1542 1543 1543 1544 1544 1545 1545 1546 1546 1546 1547
1500 1502 1505 1507 1509 1511 1514 1515 1515 1517 1518 1520 1521 1522 1523 1524 1525 1525 1526 1527 1527 1528 1528 1528 1529 1529 1529 1529 1529 1529 1529 1529 1529 1529 1530 1530 1530 1531 1531 1531 1531 1531 1531 1531 1531 1531 1531 1531 1531 1531 1531 1531 1532 1532 1532 1533 1533 1533 1534 1535 1535 1535 1536 1536 1537 1538 1539 1539 1539 1539 1540 1540 1540 1539 1540 1541 1541 1542 1542 1543 1543 1543 1543 1544 1545
1499 1501 1503 1505 1508 1510 1512 1513 1514 1516 1517 1518 1520 1521 1522 1522 1523 1524 1524 1525 1525 1526 1526 1527 1527 1527 1528 1528 1528 1528 1528 1528 1528 1529 1529 1529 1529 1529 1529 1530 1530 1530 1530 1530 1530 1530 1530 1529 1530 1530 1530 1530 1530 1530 1530 1530 1531 1531 1531 1532 1532 1533 1533 1533 1534 1535 1535 1536 1536 1536 1537 1538 1538 1537 1538 1538 1539 1540 1540 1540 1540 1540 1541 1541 1542